#timestamp,LO_Frequency,Hit,StdDev 
1546999215.8,286047002.5,N
1546999235.6,286047000.4,N
1546999255.4,286047000.9,N
1546999275.3,286047001.2,N
1546999295.1,286046998.8,N
1546999315.9,286046998.4,N
1546999335.7,286047000.1,N
1546999355.5,286047000.7,N
1546999375.4,286046998.2,N
1546999395.2,286046998.5,N
1546999415.0,286046998.9,N
1546999416.0,286046998.9,N
1546999435.8,286046996.5,N
1546999455.6,286046996.5,N
1546999475.5,286046998.1,N
1546999495.3,286046998.5,N
1546999515.1,286047000.4,N
1546999535.9,286047001.1,N
1546999555.7,286047000.2,N
1546999575.6,286047001.0,N
1546999595.4,286046998.2,N
1546999615.2,286047000.2,N
1546999635.1,286047000.4,N
1546999636.0,286047000.4,N
1546999655.8,286046998.2,N
1546999675.7,286046999.8,N
1546999695.5,286047000.2,N
1546999715.3,286047002.8,N
1546999735.2,286047003.9,N
1546999755.0,286047003.8,N
1546999755.9,286047003.8,N
1546999775.8,286047001.8,N
1546999795.6,286047002.2,N
1546999815.4,286046999.7,N
1546999835.3,286047000.2,N
1546999855.1,286047000.3,N
1546999875.8,286047000.9,N
1546999895.7,286046998.9,N
1546999915.5,286047000.8,N
1546999935.3,286046998.2,N
1546999955.2,286046998.2,N
1546999975.0,286046998.2,N
1546999975.9,286046998.2,N
1546999995.8,286046998.4,N
1547000015.6,286046998.3,N
1547000035.4,286046998.8,N
1547000055.3,286046998.8,N
1547000075.1,286046999.4,N
1547000095.9,286046999.4,N
1547000115.7,286047000.6,N
1547000135.5,286047000.8,N
1547000155.4,286047000.8,N
1547000175.2,286047001.2,N
1547000195.0,286046998.3,N
1547000195.9,286046998.3,N
1547000215.8,286046998.7,N
1547000235.6,286046998.2,N
1547000255.5,286047001.6,N
1547000275.3,286047004.2,N
1547000295.1,286046999.7,N
1547000315.9,286047000.5,N
1547000335.7,286046999.7,N
1547000355.5,286047000.1,N
1547000375.4,286046998.5,N
1547000395.2,286046998.2,N
1547000415.1,286047000.4,N
1547000416.0,286047000.4,N
1547000435.8,286047000.7,N
1547000455.6,286046999.7,N
1547000475.5,286047000.4,N
1547000495.3,286047000.0,N
1547000515.1,286047000.2,N
1547000535.9,286047001.0,N
1547000555.7,286046998.4,N
1547000575.6,286046998.3,N
1547000595.4,286046998.4,N
1547000615.2,286046998.7,N
1547000635.1,286046998.8,N
1547000636.0,286046998.8,N
1547000655.8,286047001.2,N
1547000675.6,286047000.2,N
1547000695.5,286046999.7,N
1547000715.3,286047004.4,Y
1547000735.2,286047001.5,P
1547000755.9,286047001.2,N
1547000775.7,286046998.8,N
1547000795.6,286047000.2,N
1547000815.4,286047002.1,N
1547000835.2,286047001.8,N
1547000855.1,286047002.4,N
1547000856.0,286047002.4,N
1547000875.8,286047002.7,N
1547000895.7,286047000.1,N
1547000915.5,286047001.8,N
1547000935.3,286047003.6,Y
1547000955.2,286047002.4,P
1547000975.0,286046998.1,P
1547000975.9,286046998.1,N
1547000995.7,286047000.5,N
1547001015.6,286046998.3,N
1547001035.4,286046998.9,N
1547001055.3,286046999.5,N
1547001075.1,286046997.8,N
1547001076.0,286046997.8,N
1547001095.8,286046994.9,Y
1547001115.7,286047000.8,P
1547001135.5,286046999.8,N
1547001155.4,286047001.1,N
1547001175.2,286046998.6,N
1547001195.0,286046999.3,N
1547001195.9,286046999.3,N
1547001215.8,286046998.5,N
1547001235.6,286046998.7,N
1547001255.4,286046998.8,N
1547001275.3,286046996.6,Y
1547001295.1,286046999.4,P
1547001315.9,286046996.7,P
1547001335.7,286046999.1,N
1547001355.5,286046998.4,N
1547001375.4,286046999.1,N
1547001395.2,286046997.4,N
1547001415.0,286046997.8,N
1547001415.9,286046997.8,N
1547001435.8,286046996.8,Y
1547001455.6,286046998.1,P
1547001475.5,286046998.2,P
1547001495.3,286047000.5,P
1547001515.1,286047001.2,N
1547001535.9,286046998.5,N
1547001555.7,286046998.5,N
1547001575.5,286046998.4,N
1547001595.4,286047000.0,N
1547001615.2,286047002.2,N
1547001635.1,286047004.1,N
1547001636.0,286047004.1,N
1547001655.8,286047004.0,N
1547001675.6,286047004.0,N
1547001695.5,286047001.5,N
1547001715.3,286047003.7,N
1547001735.1,286047001.4,N
1547001755.9,286047001.3,N
1547001775.7,286047005.4,N
1547001795.6,286047003.2,N
1547001815.4,286047001.9,N
1547001835.2,286046999.8,N
1547001855.1,286047002.0,N
1547001856.0,286047002.0,N
1547001875.8,286047002.2,N
1547001895.6,286047003.9,N
1547001915.5,286047003.9,N
1547001935.3,286047001.6,N
1547001955.2,286047001.6,N
1547001975.9,286047001.9,N
1547001995.7,286047002.4,N
1547002015.6,286047002.4,N
1547002035.4,286047004.2,N
1547002055.2,286047006.0,Y
1547002075.1,286047000.3,P
1547002076.0,286047000.3,N
1547002095.8,286047002.3,N
1547002115.7,286047000.5,N
1547002135.5,286047000.7,N
1547002155.3,286046998.1,N
1547002175.2,286046998.5,N
1547002195.0,286047004.0,N
1547002195.9,286047004.0,N
1547002215.7,286047001.8,N
1547002235.6,286047001.6,N
1547002255.4,286047003.4,N
1547002275.3,286047004.1,N
1547002295.1,286047002.7,N
1547002296.0,286047002.7,N
1547002315.8,286047000.2,N
1547002335.7,286046999.9,N
1547002355.5,286047002.8,N
1547002375.3,286046998.3,N
1547002395.2,286046998.3,N
1547002415.0,286046998.2,N
1547002415.9,286046998.2,N
1547002435.8,286047000.7,N
1547002455.6,286046998.3,N
1547002475.4,286046998.3,N
1547002495.3,286047001.0,N
1547002515.1,286047000.7,N
1547002535.8,286047000.3,N
1547002555.7,286047001.2,N
1547002575.5,286046998.3,N
1547002595.4,286046998.3,N
1547002615.2,286047001.2,N
1547002635.0,286046998.6,N
1547002635.9,286046998.6,N
1547002655.8,286046999.4,N
1547002675.6,286046998.7,N
1547002695.4,286046998.5,N
1547002715.3,286047000.3,N
1547002735.1,286046999.7,N
1547002755.8,286047004.0,N
1547002775.7,286047004.3,N
1547002795.5,286047002.7,N
